User: anonymous
Location: Unspecified
(0.0000°N, 0.0000°E)
Time: 20:57:30
(UTC+02:00)
Language:

Meteor 1-10 Rocket - Orbit

View from above orbital plane
View from above orbital plane
View from above satellite
View from above satellite

Ground track
Ground track

The orbit data is extracted from the following two-line orbital elements,

1 05732U 71120B   14237.49395356  .00000006  00000-0 -40568-5 0  3493
2 05732 081.2526 034.8311 0051907 050.7509 008.9927 14.05830697194676
Epoch (UTC): 25 August 2014 11:51:17
Eccentricity: 0.0051907
inclination: 81.2526°
perigee height: 836 km
apogee height: 911 km
right ascension of ascending node: 34.8311°
argument of perigee: 50.7509°
revolutions per day: 14.05830697
mean anomaly at epoch: 8.9927°
orbit number at epoch: 19467

The dashed part of the orbit path shows where the satellite is in the earth's shadow,  

DLR